Location: Middelsbur
(53.6609°N, 7.5020°E)
Time: 23:46:13
(UTC+00:00)

Cosmos 1538 Rocket - Pass Details

Date: 06 July 2020
Orbit: 753 x 791 km, 74.0° (Epoch: 14 August)

Event Time Altitude Azimuth Distance (km) Brightness Sun altitude
Rises 21:40:32 0° 208° (SSW) 3,274 6.9 -9.9°
Reaches altitude 10° 21:42:55 10° 210° (SSW) 2,346 6.2 -10.0°
Maximum altitude 21:48:16 80° 297° (WNW) 803 4.2 -10.4°
Drops below altitude 10° 21:53:37 10° 25° (NNE) 2,340 7.1 -10.7°
Sets 21:56:00 0° 27° (NNE) 3,266 7.9 -10.8°
